Wind_Speed
14 17 19 20 22 23 24 26 28 30 33 36 37 37 39 42 42 42 43 44 44 42 42 40 38 38 37 36 36 35 35 34 33 31 31 32 31 30 28 27 27 27 27 27
15 17 17 19 22 23 25 27 28 30 33 35 36 37 37 41 44 44 44 45 45 44 44 42 41 40 40 39 39 39 38 37 37 35 35 35 33 32 32 31 30 30 30 29
14 15 17 19 22 22 24 27 28 29 31 33 35 36 34 39 42 43 43 44 44 43 43 43 43 42 41 41 40 40 40 39 39 38 38 37 37 37 35 35 34 34 33 33
13 14 17 19 21 22 24 26 27 29 31 32 32 32 32 36 39 40 40 39 40 40 40 41 41 41 41 41 41 40 40 40 40 40 39 38 38 38 37 38 38 37 36 35
12 15 17 18 20 21 22 24 27 29 30 30 28 28 30 33 36 38 38 37 37 38 37 38 39 39 39 39 39 40 40 40 40 40 39 39 39 40 39 39 40 39 37 37
12 14 16 17 18 20 22 24 26 26 27 25 24 24 27 29 32 34 36 38 40 38 35 34 35 36 36 37 37 37 38 39 39 39 39 40 40 40 40 41 41 40 39 39
11 13 15 17 19 20 22 23 24 23 22 20 21 21 23 25 27 30 32 33 35 35 32 31 31 32 34 34 35 35 36 37 38 39 39 39 40 40 40 39 40 40 39 38
14 15 17 19 20 21 21 21 22 22 21 18 18 19 20 22 23 24 25 25 26 27 28 28 28 28 28 29 30 31 32 33 34 35 36 37 37 38 39 39 38 37 37 35
14 15 17 19 20 20 20 20 21 20 19 18 17 18 18 17 18 20 21 21 21 21 22 23 24 24 23 24 25 26 28 29 29 30 31 33 34 35 36 36 36 35 33 33
15 16 17 19 20 20 21 21 20 19 18 16 16 17 16 15 16 16 17 15 15 15 16 17 18 18 19 20 21 22 22 23 24 25 26 27 28 29 29 29 30 31 31 29
16 17 18 19 20 21 22 21 21 19 18 16 16 17 17 17 16 18 17 14 12 12 12 12 13 14 16 17 18 18 18 19 20 21 22 23 23 23 24 25 25 24 24 25
17 18 18 19 20 21 21 21 21 20 19 17 16 16 17 17 17 17 16 14 13 12 11 10 10 11 11 13 14 15 16 15 16 16 17 17 17 18 18 18 18 17 17 19
17 18 19 19 20 21 21 21 20 19 18 17 16 16 16 16 17 16 17 16 14 13 12 9 8 8 8 7 8 9 10 10 10 10 11 11 10 10 10 10 11 10 12 13
18 19 20 20 20 20 21 21 20 19 18 17 17 16 16 15 16 16 17 17 16 15 14 12 9 9 8 7 6 5 5 5 4 5 6 6 6 6 6 7 7 7 8 9
18 19 19 18 19 19 20 20 20 19 19 18 18 17 17 16 16 16 16 16 17 17 16 16 12 10 9 9 9 8 5 4 4 4 5 4 5 4 4 4 4 5 6 7
18 19 19 19 19 20 20 20 19 19 18 18 18 17 17 16 16 16 16 16 16 16 16 17 16 14 12 11 11 10 9 8 7 6 6 5 5 5 5 5 5 6 7 8
17 19 20 20 20 20 20 20 19 18 18 17 17 17 17 17 16 16 16 15 15 15 15 16 16 15 15 14 13 12 11 10 8 7 6 6 6 6 6 7 8 9 9 10
17 18 20 20 20 20 20 20 19 18 18 18 17 17 16 16 16 16 15 15 15 14 14 15 15 15 14 14 14 13 13 12 11 9 9 8 8 8 9 10 10 10 11 11
16 17 19 20 20 20 20 20 19 19 18 18 17 17 16 16 16 16 15 14 13 14 14 14 14 15 15 14 14 14 13 13 13 12 12 11 11 11 11 11 11 12 12 13
15 17 18 19 20 21 20 20 20 19 19 19 18 18 17 17 17 16 15 13 12 12 13 14 15 15 15 15 15 15 15 15 15 14 13 13 13 13 13 13 13 13 13 13
14 16 18 19 20 20 21 21 21 21 21 20 19 18 18 17 16 15 13 12 11 11 12 13 14 15 15 15 16 16 16 16 16 15 15 14 14 13 13 13 13 13 13 13
14 16 17 19 20 20 20 20 21 22 22 21 20 19 18 17 15 13 12 11 10 10 11 12 13 14 15 16 16 17 17 17 16 16 15 15 14 13 13 13 12 12 12 12
14 16 17 19 19 19 19 20 21 23 23 22 21 20 19 17 14 12 11 10 10 11 11 11 13 14 15 16 17 17 17 17 17 16 16 15 15 13 13 12 11 11 11 11
14 15 16 17 17 18 18 19 21 22 23 23 22 20 19 16 14 12 10 10 10 11 11 11 12 14 15 16 17 17 18 18 18 17 17 16 15 14 13 13 12 12 11 10
14 15 16 16 17 17 18 19 20 22 23 23 22 20 18 16 14 12 11 11 11 10 10 11 12 13 15 16 17 17 18 18 19 18 18 17 17 16 15 14 13 13 12 11
14 15 15 16 16 17 17 18 19 20 22 22 22 20 18 16 14 12 11 11 11 11 11 11 12 13 15 16 17 17 18 19 19 19 19 19 18 17 17 16 15 15 14 13
Wind_Direction
264 270 275 280 281 282 282 282 282 281 281 283 285 285 282 279 278 276 275 273 272 272 271 270 267 266 266 266 266 267 269 270 270 272 273 273 275 277 277 278 279 279 280 281
272 276 283 285 287 288 288 287 285 286 286 288 288 286 283 281 279 277 276 273 272 271 269 267 266 265 264 264 264 265 266 267 267 268 270 271 270 273 274 276 277 280 282 281
281 291 293 294 294 294 293 291 292 292 292 291 291 288 283 280 280 280 279 277 273 271 269 266 265 263 262 261 261 261 262 263 264 265 266 267 270 273 273 275 275 278 282 283
293 300 302 302 301 301 300 300 300 300 299 296 293 290 283 279 277 279 279 277 275 273 270 266 263 261 260 259 258 258 259 261 262 263 264 266 267 270 272 274 275 275 280 280
313 314 313 311 309 308 307 307 307 306 305 302 299 292 284 281 277 277 276 275 276 275 271 266 262 259 258 256 256 256 257 258 259 261 264 265 266 268 270 272 274 275 277 280
328 329 327 324 320 318 316 316 318 318 318 313 306 295 285 280 277 274 274 275 277 276 272 268 263 259 256 255 254 255 255 256 257 260 262 264 266 267 268 270 273 274 275 277
349 348 344 338 334 330 327 327 330 330 324 312 305 297 291 288 284 278 276 277 273 273 274 269 265 260 257 255 254 255 255 256 258 260 262 263 264 266 267 270 272 273 274 275
355 356 350 345 342 338 336 335 337 336 333 324 318 311 303 302 296 292 287 288 284 279 276 272 267 263 260 257 256 255 256 258 259 261 262 263 265 266 268 269 271 272 271 273
1 356 352 349 348 346 346 347 346 344 344 342 337 328 325 318 310 307 301 297 292 288 281 274 269 263 262 261 261 260 260 261 262 264 264 264 265 266 267 268 269 268 268 269
5 0 359 357 358 359 357 356 356 355 353 352 347 342 338 334 331 328 323 315 305 300 291 280 274 268 266 266 264 264 263 263 265 265 266 267 266 267 267 266 265 264 264 264
10 7 6 4 5 3 2 0 1 1 0 359 358 358 356 352 349 347 346 337 330 325 315 303 288 278 275 272 268 265 265 265 267 268 269 268 268 268 267 265 263 264 262 262
14 9 9 10 8 5 5 4 4 6 6 4 2 3 4 359 355 355 354 350 345 339 329 314 300 292 286 276 272 269 267 264 264 267 267 267 267 263 261 260 258 260 258 256
15 12 12 12 10 8 6 5 5 9 12 10 7 7 9 7 5 6 6 3 359 359 352 338 324 317 316 301 284 274 269 267 265 267 266 262 261 258 259 261 259 255 249 249
16 16 16 13 10 8 7 8 9 10 13 13 13 12 12 10 9 11 12 13 13 12 9 5 3 358 352 349 341 315 303 295 297 289 276 269 270 270 265 264 258 250 250 248
18 17 17 15 13 11 9 10 12 13 15 14 15 16 14 11 10 10 12 16 18 19 19 19 15 17 17 15 15 9 1 350 348 340 327 306 290 289 286 282 279 271 266 259
18 19 18 17 16 13 12 12 13 13 14 14 12 11 9 7 8 9 11 14 18 21 23 25 26 28 27 24 20 17 17 14 7 352 337 334 331 323 314 307 296 288 282 275
16 16 16 17 16 14 13 11 12 11 9 7 4 4 5 5 6 5 5 7 11 16 20 24 25 25 26 26 24 21 18 15 6 357 347 332 323 315 306 299 296 292 283 276
13 13 14 15 14 16 12 11 10 6 3 1 360 358 358 360 2 2 0 2 8 13 15 16 16 18 19 18 17 15 11 7 2 352 344 333 323 314 309 305 300 294 286 282
11 11 12 14 14 14 12 9 8 5 3 1 358 357 356 355 356 359 359 1 5 8 9 10 12 12 12 11 9 7 4 0 355 350 343 336 329 322 314 307 301 295 290 285
9 9 9 10 11 13 11 9 6 3 2 359 357 354 352 350 351 356 358 1 2 5 7 8 9 10 10 9 7 5 1 357 353 348 343 337 332 326 320 313 306 301 295 288
4 5 6 6 7 9 8 6 4 2 360 357 354 350 348 346 347 350 354 357 1 3 5 7 9 10 10 9 8 5 2 358 355 352 348 344 338 332 327 321 315 309 303 297
358 360 2 3 4 6 4 4 3 1 360 357 354 352 348 347 348 349 353 358 0 2 6 8 9 10 11 10 9 7 5 4 1 358 356 353 349 343 337 332 327 322 315 308
353 355 358 360 1 1 2 3 2 2 1 360 358 354 353 353 354 356 359 3 4 7 8 9 12 13 13 13 12 11 11 10 8 6 5 3 0 357 353 349 345 340 334 327
349 351 353 356 357 358 359 0 2 3 3 3 3 2 1 3 7 12 15 15 15 15 20 19 18 18 17 16 15 16 16 16 15 14 12 11 11 10 8 6 1 357 353 349
345 347 349 351 355 357 358 359 1 3 6 7 8 9 10 12 17 23 27 26 26 29 27 26 25 23 22 21 21 21 21 20 20 20 21 21 20 19 17 16 15 14 13 11
339 341 343 346 350 354 357 359 1 3 6 9 11 13 15 17 24 32 36 37 36 34 34 33 30 27 25 26 27 26 25 24 24 24 24 24 25 25 25 24 24 24 26 27
Height
5887 5888 5886 5886 5885 5884 5883 5882 5881 5879 5875 5873 5872 5870 5866 5863 5862 5863 5861 5861 5860 5862 5862 5864 5865 5865 5866 5866 5867 5867 5867 5868 5869 5869 5869 5869 5868 5869 5870 5870 5871 5871 5871 5871
5885 5884 5883 5882 5880 5879 5878 5876 5874 5872 5868 5866 5864 5862 5858 5853 5851 5851 5850 5849 5849 5851 5851 5852 5853 5854 5856 5857 5858 5859 5859 5860 5861 5862 5862 5861 5859 5861 5863 5864 5864 5864 5864 5864
5881 5881 5879 5878 5876 5874 5872 5869 5867 5865 5862 5858 5855 5853 5850 5843 5841 5839 5839 5838 5837 5838 5839 5840 5842 5844 5845 5846 5848 5849 5850 5851 5852 5853 5854 5854 5853 5854 5855 5856 5856 5857 5857 5858
5879 5878 5876 5874 5871 5869 5866 5863 5860 5857 5854 5851 5848 5844 5840 5834 5832 5829 5828 5827 5826 5827 5827 5828 5830 5831 5833 5835 5837 5839 5840 5842 5843 5844 5844 5846 5846 5846 5846 5847 5848 5849 5849 5850
5876 5874 5872 5870 5867 5864 5861 5857 5854 5849 5845 5842 5839 5836 5831 5827 5824 5822 5819 5818 5816 5816 5816 5816 5818 5819 5821 5824 5826 5828 5830 5832 5834 5835 5836 5837 5838 5838 5838 5839 5839 5840 5841 5842
5874 5871 5869 5866 5863 5859 5856 5852 5848 5843 5838 5834 5831 5828 5823 5819 5816 5814 5812 5809 5807 5807 5807 5807 5807 5809 5811 5813 5815 5818 5820 5822 5824 5825 5827 5828 5829 5829 5830 5831 5831 5831 5832 5833
5872 5870 5866 5863 5860 5856 5852 5848 5843 5838 5833 5830 5825 5821 5818 5813 5809 5807 5804 5801 5798 5798 5798 5798 5799 5800 5801 5803 5806 5808 5811 5813 5814 5816 5817 5818 5819 5820 5822 5822 5823 5823 5823 5824
5871 5868 5865 5861 5857 5853 5848 5844 5840 5835 5830 5825 5821 5816 5813 5808 5804 5801 5798 5795 5793 5792 5791 5791 5791 5792 5794 5796 5798 5800 5802 5804 5806 5807 5808 5810 5810 5811 5813 5813 5814 5814 5814 5814
5870 5867 5864 5859 5855 5851 5846 5841 5837 5832 5827 5822 5818 5814 5810 5806 5802 5799 5795 5792 5789 5787 5786 5785 5785 5787 5788 5790 5792 5793 5795 5797 5798 5800 5801 5802 5802 5803 5804 5804 5805 5805 5806 5807
5870 5867 5863 5859 5854 5850 5845 5840 5836 5830 5825 5822 5818 5814 5810 5805 5802 5798 5794 5790 5787 5784 5783 5782 5782 5783 5784 5786 5787 5788 5789 5791 5792 5793 5794 5795 5795 5796 5796 5797 5797 5798 5799 5800
5869 5867 5863 5858 5853 5849 5845 5840 5835 5830 5825 5821 5818 5816 5809 5805 5802 5798 5793 5789 5787 5785 5783 5782 5781 5781 5782 5782 5783 5784 5785 5786 5787 5787 5788 5788 5789 5789 5790 5790 5791 5792 5792 5793
5869 5866 5862 5858 5854 5849 5845 5840 5835 5831 5826 5821 5818 5818 5810 5807 5803 5799 5795 5791 5788 5785 5783 5781 5781 5780 5780 5780 5780 5781 5781 5782 5783 5783 5783 5784 5784 5785 5785 5785 5786 5787 5787 5789
5870 5867 5862 5858 5855 5850 5845 5840 5835 5831 5827 5823 5819 5819 5812 5808 5804 5801 5797 5793 5790 5787 5785 5783 5781 5780 5779 5779 5779 5779 5779 5779 5779 5780 5780 5780 5780 5781 5782 5782 5782 5783 5784 5785
5870 5866 5863 5859 5854 5849 5845 5840 5836 5832 5828 5824 5821 5818 5814 5810 5807 5803 5800 5796 5792 5790 5787 5785 5783 5781 5780 5779 5778 5778 5778 5778 5778 5778 5778 5778 5778 5779 5779 5779 5780 5781 5782 5783
5871 5867 5863 5859 5854 5850 5845 5841 5837 5833 5829 5826 5822 5819 5816 5812 5809 5806 5802 5799 5796 5793 5790 5787 5785 5783 5782 5781 5780 5779 5778 5778 5778 5778 5778 5778 5777 5777 5778 5778 5779 5779 5780 5781
5872 5868 5864 5860 5855 5851 5846 5842 5838 5835 5831 5828 5824 5821 5817 5814 5811 5807 5804 5801 5799 5796 5793 5791 5788 5786 5784 5783 5781 5780 5779 5778 5778 5778 5778 5777 5777 5777 5777 5777 5778 5778 5778 5779
5872 5869 5865 5861 5856 5852 5848 5844 5840 5836 5833 5829 5826 5823 5818 5815 5812 5809 5806 5803 5800 5798 5795 5793 5790 5788 5786 5784 5783 5782 5780 5779 5778 5778 5778 5777 5777 5776 5776 5776 5776 5776 5776 5776
5873 5870 5866 5862 5858 5853 5852 5845 5841 5838 5834 5830 5826 5823 5820 5817 5814 5810 5807 5804 5801 5799 5797 5795 5792 5790 5788 5786 5784 5783 5781 5780 5778 5778 5777 5776 5775 5775 5774 5773 5773 5773 5772 5772
5873 5870 5867 5863 5859 5855 5851 5847 5842 5839 5835 5831 5827 5823 5820 5817 5814 5811 5807 5804 5802 5800 5798 5796 5794 5791 5789 5787 5785 5784 5782 5780 5779 5777 5776 5774 5773 5772 5771 5770 5770 5769 5769 5769
5874 5871 5868 5864 5860 5856 5853 5848 5843 5841 5836 5832 5827 5824 5820 5817 5814 5812 5808 5805 5803 5801 5799 5797 5795 5793 5790 5788 5786 5784 5782 5780 5778 5776 5774 5772 5771 5769 5768 5767 5766 5765 5765 5764
5875 5872 5868 5864 5861 5857 5854 5849 5845 5842 5838 5832 5828 5824 5820 5816 5814 5811 5808 5806 5804 5802 5800 5798 5796 5794 5792 5789 5787 5785 5782 5780 5777 5775 5773 5771 5769 5767 5765 5764 5762 5761 5760 5760
5874 5872 5868 5865 5862 5860 5854 5850 5847 5843 5837 5832 5828 5824 5820 5816 5812 5810 5808 5806 5804 5803 5801 5799 5797 5795 5793 5790 5788 5785 5783 5780 5777 5774 5772 5770 5767 5765 5763 5761 5759 5758 5757 5756
5874 5872 5868 5866 5864 5859 5855 5851 5847 5843 5838 5833 5828 5824 5819 5815 5812 5810 5808 5807 5805 5803 5802 5800 5799 5797 5794 5792 5789 5787 5784 5781 5778 5775 5772 5770 5767 5765 5762 5760 5758 5756 5754 5753
5874 5871 5869 5866 5863 5859 5856 5852 5849 5844 5840 5835 5829 5824 5820 5816 5813 5810 5809 5808 5806 5805 5803 5802 5800 5798 5796 5794 5791 5788 5785 5783 5780 5777 5774 5771 5768 5765 5762 5760 5758 5755 5753 5751
5873 5871 5868 5866 5863 5860 5857 5853 5850 5846 5841 5836 5831 5826 5822 5817 5814 5812 5811 5810 5808 5806 5805 5803 5802 5800 5798 5796 5793 5790 5788 5785 5782 5779 5775 5772 5769 5766 5764 5761 5758 5756 5753 5751
5872 5870 5868 5866 5863 5860 5857 5854 5850 5847 5843 5838 5834 5829 5824 5820 5817 5815 5813 5812 5810 5809 5807 5806 5804 5803 5801 5798 5796 5793 5790 5787 5784 5781 5778 5775 5772 5769 5766 5763 5760 5757 5755 5753